| time (UTC) | temp F | wind direction | speed knots | gust knots | rain 1hr in | rain 24hr in | rain mn in | humidity % | barometer mb |
| 20260507093856 | 60 | 327 | 2.6 | 6.1 | 0.00 | 0.00 | 0.00 | 65 | 1015.3 |
| 20260507092856 | 59 | 55 | 1.7 | 4.3 | 0.00 | 0.00 | 0.00 | 63 | 1015.2 |
| 20260507091857 | 60 | 53 | 2.6 | 7.0 | 0.00 | 0.00 | 0.00 | 66 | 1015.1 |
| 20260507090856 | 58 | 0 | 1.7 | 5.2 | 0.00 | 0.00 | 0.00 | 70 | 1015.1 |
| 20260507084857 | 57 | 0 | 1.7 | 4.3 | 0.00 | 0.00 | 0.00 | 70 | 1015.0 |
| 20260507084339 | 57 | 29 | 2.6 | 5.2 | 0.00 | 0.00 | 0.00 | 72 | 1015.0 |
| 20260507082854 | 57 | 17 | 1.7 | 4.3 | 0.00 | 0.00 | 0.00 | 73 | 1015.0 |
| 20260507081854 | 57 | 314 | 2.6 | 5.2 | 0.00 | 0.00 | 0.00 | 74 | 1015.0 |
| 20260507080854 | 56 | 323 | 1.7 | 5.2 | 0.00 | 0.00 | 0.00 | 78 | 1015.0 |
| 20260507075852 | 56 | 55 | 2.6 | 6.1 | 0.00 | 0.00 | 0.00 | 78 | 1015.0 |
| 20260507074849 | 55 | 299 | 1.7 | 6.1 | 0.00 | 0.00 | 0.00 | 80 | 1014.9 |
| 20260507073850 | 55 | 17 | 1.7 | 4.3 | 0.00 | 0.00 | 0.00 | 80 | 1014.9 |
| 20260507073329 | 54 | 20 | 2.6 | 4.3 | 0.00 | 0.00 | 0.00 | 80 | 1015.0 |
| 20260507071850 | 54 | 57 | 1.7 | 4.3 | 0.00 | 0.00 | 0.00 | 80 | 1014.9 |
| 20260507070852 | 54 | 36 | 1.7 | 5.2 | 0.00 | 0.00 | 0.00 | 81 | 1014.9 |
| 20260507064852 | 53 | 55 | 1.7 | 3.5 | 0.00 | 0.00 | 0.00 | 85 | 1014.8 |
| 20260507063850 | 52 | 44 | 1.7 | 7.0 | 0.00 | 0.00 | 0.00 | 87 | 1014.7 |
| 20260507062851 | 51 | 9 | 0.9 | 3.5 | 0.00 | 0.00 | 0.00 | 89 | 1014.6 |
| 20260507061850 | 49 | 355 | 0.9 | 4.3 | 0.00 | 0.00 | 0.00 | 93 | 1014.5 |
| 20260507060850 | 49 | 355 | 0.9 | 2.6 | 0.00 | 0.00 | 0.00 | 93 | 1014.6 |
| 20260507055852 | 48 | 355 | 0.9 | 2.6 | 0.00 | 0.00 | 0.00 | 94 | 1014.6 |
| 20260507055330 | 47 | 0 | 0.0 | 2.6 | 0.00 | 0.00 | 0.00 | 95 | 1014.5 |
| 20260507053848 | 47 | 0 | 0.0 | 1.7 | 0.00 | 0.00 | 0.00 | 96 | 1014.3 |
| 20260507052848 | 46 | 0 | 0.0 | 0.9 | 0.00 | 0.00 | 0.00 | 95 | 1014.3 |
| 20260507052327 | 46 | 0 | 0.0 | 0.9 | 0.00 | 0.00 | 0.00 | 95 | 1014.2 |
| 20260507050847 | 46 | 0 | 0.0 | 0.9 | 0.00 | 0.00 | 0.00 | 95 | 1014.1 |
| 20260507050342 | 46 | 0 | 0.0 | 0.9 | 0.00 | 0.00 | 0.00 | 96 | 1014.1 |
| 20260507045330 | 45 | 0 | 0.0 | 0.9 | 0.00 | 0.00 | 0.00 | 95 | 1013.9 |
| 20260507043849 | 45 | 0 | 0.0 | 0.0 | 0.00 | 0.00 | 0.00 | 94 | 1013.9 |
| 20260507042846 | 45 | 0 | 0.0 | 0.9 | 0.00 | 0.00 | 0.00 | 94 | 1013.7 |
| 20260507041846 | 45 | 0 | 0.0 | 0.9 | 0.00 | 0.00 | 0.00 | 93 | 1013.7 |
| 20260507040846 | 46 | 0 | 0.0 | 1.7 | 0.00 | 0.00 | 0.00 | 93 | 1013.6 |
| 20260507035843 | 46 | 0 | 0.0 | 2.6 | 0.00 | 0.00 | 0.00 | 92 | 1013.6 |
| 20260507034841 | 46 | 0 | 0.0 | 1.7 | 0.00 | 0.00 | 0.00 | 92 | 1013.6 |
| 20260507033841 | 46 | 0 | 0.0 | 2.6 | 0.00 | 0.00 | 0.00 | 92 | 1013.4 |
| 20260507033327 | 46 | 0 | 0.0 | 1.7 | 0.00 | 0.00 | 0.00 | 92 | 1013.3 |
| 20260507032318 | 47 | 0 | 0.0 | 0.9 | 0.00 | 0.00 | 0.00 | 92 | 1013.2 |
| 20260507030839 | 47 | 0 | 0.9 | 2.6 | 0.00 | 0.00 | 0.00 | 91 | 1013.1 |
| 20260507030324 | 47 | 348 | 0.0 | 2.6 | 0.00 | 0.00 | 0.00 | 91 | 1013.2 |
| 20260507024839 | 47 | 349 | 0.9 | 2.6 | 0.00 | 0.00 | 0.00 | 92 | 1013.1 |
| 20260507023840 | 47 | 338 | 0.0 | 2.6 | 0.00 | 0.00 | 0.00 | 92 | 1013.1 |
| 20260507022840 | 48 | 338 | 0.0 | 2.6 | 0.00 | 0.00 | 0.00 | 92 | 1013.0 |
| 20260507021840 | 48 | 338 | 0.9 | 2.6 | 0.00 | 0.00 | 0.00 | 92 | 1013.0 |
| 20260507020841 | 48 | 340 | 0.0 | 1.7 | 0.00 | 0.00 | 0.00 | 91 | 1012.8 |
| 20260507015840 | 48 | 340 | 0.0 | 1.7 | 0.00 | 0.00 | 0.00 | 91 | 1012.7 |
| 20260507014839 | 48 | 341 | 0.0 | 1.7 | 0.00 | 0.00 | 0.00 | 90 | 1012.6 |
| 20260507013838 | 48 | 341 | 0.9 | 2.6 | 0.00 | 0.00 | 0.00 | 90 | 1012.6 |
| 20260507013317 | 49 | 338 | 0.0 | 1.7 | 0.00 | 0.00 | 0.00 | 89 | 1012.6 |
| 20260507011833 | 49 | 343 | 0.0 | 2.6 | 0.00 | 0.00 | 0.00 | 88 | 1012.6 |
| 20260507010832 | 49 | 342 | 0.9 | 1.7 | 0.00 | 0.00 | 0.00 | 88 | 1012.6 |
| 20260507010314 | 50 | 342 | 0.0 | 1.7 | 0.00 | 0.00 | 0.00 | 87 | 1012.5 |
| 20260507004830 | 50 | 342 | 0.9 | 3.5 | 0.00 | 0.00 | 0.00 | 86 | 1012.5 |
| 20260507002831 | 50 | 5 | 0.9 | 2.6 | 0.00 | 0.00 | 0.00 | 85 | 1012.4 |
| 20260507001828 | 51 | 348 | 0.9 | 3.5 | 0.00 | 0.00 | 0.00 | 84 | 1012.4 |
| 20260507000314 | 51 | 342 | 0.9 | 5.2 | 0.00 | 0.00 | 0.00 | 83 | 1012.3 |
| 20260506234822 | 51 | 355 | 0.9 | 4.3 | 0.00 | 0.00 | 0.00 | 83 | 1012.3 |
| 20260506233819 | 51 | 11 | 0.9 | 3.5 | 0.00 | 0.00 | 0.00 | 82 | 1012.2 |
| 20260506232821 | 51 | 11 | 0.9 | 4.3 | 0.00 | 0.00 | 0.00 | 82 | 1012.1 |
| 20260506231820 | 51 | 61 | 0.9 | 4.3 | 0.00 | 0.00 | 0.00 | 81 | 1012.0 |
| 20260506230821 | 51 | 355 | 1.7 | 3.5 | 0.00 | 0.00 | 0.00 | 80 | 1012.0 |
| 20260506225818 | 52 | 344 | 0.9 | 2.6 | 0.00 | 0.00 | 0.00 | 81 | 1011.9 |
| 20260506224816 | 52 | 340 | 0.9 | 2.6 | 0.00 | 0.00 | 0.00 | 80 | 1011.9 |
| 20260506223817 | 52 | 333 | 0.9 | 5.2 | 0.00 | 0.00 | 0.00 | 80 | 1011.9 |
| 20260506222816 | 52 | 61 | 0.9 | 2.6 | 0.00 | 0.00 | 0.00 | 81 | 1011.8 |
| 20260506221815 | 52 | 67 | 0.0 | 2.6 | 0.00 | 0.00 | 0.00 | 79 | 1011.8 |
| 20260506221247 | 52 | 67 | 0.0 | 0.9 | 0.00 | 0.00 | 0.00 | 79 | 1011.8 |
| 20260506215805 | 52 | 67 | 0.9 | 2.6 | 0.00 | 0.00 | 0.00 | 79 | 1011.8 |
| 20260506214805 | 52 | 68 | 0.0 | 2.6 | 0.00 | 0.00 | 0.00 | 79 | 1011.7 |
| 20260506213804 | 52 | 69 | 0.0 | 1.7 | 0.00 | 0.00 | 0.00 | 78 | 1011.7 |
| 20260506213243 | 52 | 69 | 0.0 | 0.0 | 0.00 | 0.00 | 0.00 | 77 | 1011.6 |
| 20260506212244 | 52 | 69 | 0.0 | 0.0 | 0.00 | 0.00 | 0.00 | 77 | 1011.5 |
| 20260506210803 | 52 | 69 | 0.0 | 0.0 | 0.00 | 0.00 | 0.00 | 77 | 1011.5 |
| 20260506205804 | 52 | 69 | 0.0 | 0.0 | 0.00 | 0.00 | 0.00 | 78 | 1011.4 |
| 20260506204805 | 52 | 69 | 0.0 | 0.0 | 0.00 | 0.00 | 0.00 | 79 | 1011.3 |
| 20260506203804 | 53 | 69 | 0.0 | 0.0 | 0.00 | 0.00 | 0.00 | 79 | 1011.3 |
| 20260506202803 | 53 | 69 | 0.0 | 0.0 | 0.00 | 0.00 | 0.00 | 79 | 1011.3 |
| 20260506201803 | 53 | 69 | 0.0 | 1.7 | 0.00 | 0.00 | 0.00 | 78 | 1011.2 |
| 20260506200801 | 53 | 69 | 0.9 | 1.7 | 0.00 | 0.00 | 0.00 | 77 | 1011.1 |
| 20260506200245 | 53 | 69 | 0.9 | 1.7 | 0.00 | 0.00 | 0.00 | 77 | 1011.0 |
| 20260506195235 | 53 | 69 | 0.0 | 0.9 | 0.00 | 0.00 | 0.00 | 77 | 1010.9 |
| 20260506193759 | 53 | 69 | 0.0 | 0.9 | 0.00 | 0.00 | 0.00 | 75 | 1010.8 |
| 20260506192759 | 53 | 69 | 0.0 | 1.7 | 0.00 | 0.00 | 0.00 | 74 | 1010.7 |
| 20260506191801 | 53 | 69 | 0.0 | 2.6 | 0.00 | 0.00 | 0.00 | 75 | 1010.7 |
| 20260506190800 | 54 | 69 | 0.9 | 2.6 | 0.00 | 0.00 | 0.00 | 74 | 1010.5 |
| 20260506185757 | 54 | 69 | 1.7 | 2.6 | 0.00 | 0.00 | 0.00 | 72 | 1010.4 |
| 20260506184759 | 54 | 69 | 1.7 | 3.5 | 0.00 | 0.00 | 0.00 | 72 | 1010.3 |
| 20260506183757 | 54 | 69 | 1.7 | 3.5 | 0.00 | 0.00 | 0.00 | 71 | 1010.2 |
| 20260506182757 | 54 | 68 | 2.6 | 6.1 | 0.00 | 0.00 | 0.00 | 72 | 1010.1 |
| 20260506181755 | 54 | 75 | 1.7 | 3.5 | 0.00 | 0.00 | 0.00 | 72 | 1010.0 |
| 20260506180753 | 54 | 75 | 2.6 | 4.3 | 0.00 | 0.00 | 0.00 | 71 | 1009.9 |
| 20260506175752 | 54 | 75 | 2.6 | 4.3 | 0.00 | 0.00 | 0.00 | 70 | 1009.8 |
| 20260506174752 | 55 | 76 | 3.5 | 8.7 | 0.00 | 0.00 | 0.00 | 69 | 1009.7 |
| 20260506173751 | 55 | 69 | 5.2 | 8.7 | 0.00 | 0.00 | 0.00 | 69 | 1009.6 |
| 20260506172751 | 55 | 70 | 7.0 | 10.4 | 0.00 | 0.00 | 0.00 | 69 | 1009.5 |
| 20260506171753 | 55 | 73 | 7.0 | 11.3 | 0.00 | 0.00 | 0.00 | 67 | 1009.4 |
| 20260506170751 | 55 | 63 | 4.3 | 8.7 | 0.00 | 0.00 | 0.00 | 68 | 1009.4 |
| 20260506165741 | 56 | 65 | 5.2 | 11.3 | 0.00 | 0.00 | 0.00 | 66 | 1009.3 |
| 20260506165223 | 56 | 71 | 6.1 | 11.3 | 0.00 | 0.00 | 0.00 | 67 | 1009.2 |
| 20260506163741 | 56 | 59 | 4.3 | 8.7 | 0.00 | 0.00 | 0.00 | 66 | 1009.1 |
| 20260506162743 | 56 | 63 | 3.5 | 7.8 | 0.00 | 0.00 | 0.00 | 66 | 1009.1 |
| 20260506161741 | 56 | 74 | 4.3 | 11.3 | 0.00 | 0.00 | 0.00 | 65 | 1009.1 |
| 20260506161219 | 56 | 59 | 7.8 | 12.2 | 0.00 | 0.00 | 0.00 | 66 | 1009.1 |
| 20260506155743 | 56 | 48 | 7.0 | 12.2 | 0.00 | 0.00 | 0.00 | 66 | 1009.0 |
| 20260506154741 | 56 | 63 | 6.1 | 12.2 | 0.00 | 0.00 | 0.00 | 65 | 1009.0 |
| 20260506153741 | 57 | 64 | 7.8 | 13.9 | 0.00 | 0.00 | 0.00 | 63 | 1009.1 |
| 20260506152739 | 58 | 64 | 8.7 | 15.6 | 0.00 | 0.00 | 0.00 | 62 | 1009.0 |
| 20260506151741 | 58 | 57 | 5.2 | 12.2 | 0.00 | 0.00 | 0.00 | 62 | 1008.9 |
| 20260506150741 | 58 | 69 | 7.0 | 15.6 | 0.00 | 0.00 | 0.00 | 62 | 1008.9 |
| 20260506145739 | 58 | 42 | 4.3 | 11.3 | 0.00 | 0.00 | 0.00 | 61 | 1008.9 |
| 20260506144740 | 58 | 32 | 3.5 | 8.7 | 0.00 | 0.00 | 0.00 | 59 | 1008.8 |
| 20260506143741 | 58 | 63 | 4.3 | 10.4 | 0.00 | 0.00 | 0.00 | 59 | 1008.8 |
| 20260506142739 | 58 | 68 | 4.3 | 11.3 | 0.00 | 0.00 | 0.00 | 62 | 1008.7 |
| 20260506141739 | 58 | 19 | 3.5 | 8.7 | 0.00 | 0.00 | 0.00 | 64 | 1008.7 |
| 20260506140739 | 58 | 64 | 4.3 | 9.6 | 0.00 | 0.00 | 0.00 | 65 | 1008.8 |
| 20260506135739 | 59 | 0 | 4.3 | 13.0 | 0.00 | 0.00 | 0.00 | 65 | 1008.7 |
| 20260506134741 | 60 | 59 | 2.6 | 7.8 | 0.00 | 0.00 | 0.00 | 64 | 1008.7 |
| 20260506133737 | 60 | 44 | 4.3 | 11.3 | 0.00 | 0.00 | 0.00 | 65 | 1008.6 |
| 20260506133215 | 60 | 355 | 3.5 | 9.6 | 0.00 | 0.00 | 0.00 | 66 | 1008.6 |
| 20260506131737 | 60 | 13 | 4.3 | 11.3 | 0.00 | 0.00 | 0.00 | 66 | 1008.6 |
| 20260506130737 | 60 | 55 | 4.3 | 9.6 | 0.00 | 0.00 | 0.00 | 65 | 1008.6 |
| 20260506125737 | 60 | 62 | 3.5 | 9.6 | 0.00 | 0.00 | 0.00 | 67 | 1008.5 |
| 20260506124737 | 59 | 69 | 4.3 | 9.6 | 0.00 | 0.00 | 0.00 | 67 | 1008.4 |
| 20260506124214 | 58 | 347 | 3.5 | 8.7 | 0.00 | 0.00 | 0.00 | 69 | 1008.4 |
| 20260506122737 | 58 | 72 | 3.5 | 8.7 | 0.00 | 0.00 | 0.00 | 68 | 1008.3 |
| 20260506121737 | 58 | 49 | 1.7 | 7.0 | 0.00 | 0.00 | 0.00 | 63 | 1008.4 |
| 20260506120737 | 59 | 134 | 1.7 | 7.8 | 0.00 | 0.00 | 0.00 | 67 | 1008.4 |
| 20260506115739 | 60 | 10 | 3.5 | 9.6 | 0.00 | 0.00 | 0.00 | 64 | 1008.2 |
| 20260506114737 | 61 | 329 | 3.5 | 10.4 | 0.00 | 0.00 | 0.00 | 68 | 1008.2 |
| 20260506114212 | 61 | 33 | 3.5 | 9.6 | 0.00 | 0.00 | 0.00 | 67 | 1008.1 |
| 20260506112735 | 60 | 21 | 2.6 | 7.8 | 0.00 | 0.00 | 0.00 | 70 | 1008.1 |
| 20260506111737 | 59 | 11 | 1.7 | 7.8 | 0.00 | 0.00 | 0.00 | 69 | 1008.2 |
| 20260506110735 | 58 | 345 | 2.6 | 7.8 | 0.00 | 0.00 | 0.00 | 72 | 1008.1 |
| 20260506105733 | 57 | 63 | 2.6 | 6.1 | 0.00 | 0.00 | 0.00 | 70 | 1008.1 |
| 20260506105209 | 57 | 350 | 1.7 | 5.2 | 0.00 | 0.00 | 0.00 | 72 | 1008.2 |
| 20260506102733 | 57 | 16 | 1.7 | 4.3 | 0.00 | 0.00 | 0.00 | 75 | 1008.2 |
| 20260506101732 | 57 | 351 | 1.7 | 7.0 | 0.00 | 0.00 | 0.00 | 75 | 1008.1 |
| 20260506100735 | 57 | 11 | 3.5 | 7.8 | 0.00 | 0.00 | 0.00 | 77 | 1008.0 |
| 20260506094731 | 58 | 327 | 2.6 | 9.6 | 0.00 | 0.00 | 0.00 | 74 | 1008.0 |